Weather Roundup
Issued by NWS Chicago, IL

Home | Current Version | Previous Version | Text Only | Print | Product List | Glossary Off
Versions: 1 2 3 4 5 6 7 8 9 10 11 12 13 14 15 16 17 18 19 20 21 22 23 24 25 26 27 28 29 30 31 32 33 34 35 36 37 38 39 40 41 42 43 44 45 46 47 48 49 50

000
NZUS59 KLOT 300706
HRRLOT

CHICAGO AREA WEATHER ROUNDUP
NATIONAL WEATHER SERVICE CHICAGO/ROMEOVILLE IL
100 AM CST FRI JAN 30 2015

NOTE: "FAIR" INDICATES FEW OR NO CLOUDS BELOW 12,000 FEET WITH NO
SIGNIFICANT WEATHER AND/OR OBSTRUCTIONS TO VISIBILITY.

* THESE STATIONS ARE NOT UNDER NWS QUALITY CONTROL. THEY ALSO MAY NOT
  REPORT WEATHER SUCH AS PRECIPITATION OR FOG.

ILZ005-006-012>014-019>023-300800-
NORTHEAST ILLINOIS

CITY           SKY/WX    TMP DP  RH WIND       PRES   REMARKS
OHARE          CLOUDY    28  14  55 N16       30.34R WCI  16
MIDWAY         FLURRIES  31  17  56 N20G25    30.34R WCI  19
AURORA         PTCLDY    28  16  60 NW16      30.35R WCI  16
LANSING*       FLURRIES  29  22  75 N10G24    30.32R WCI  20
JOLIET*        MOCLDY    29  17  58 N13G21    30.35R WCI  19
WAUKEGAN       CLOUDY    26   9  48 N12G21    30.35R WCI  16
DUPAGE AIRPORT FLURRIES  28  20  71 N16       30.34R WCI  16
WHEELING       CLOUDY    28  12  51 N16G25    30.36R WCI  16
KANKAKEE*      CLOUDY    32  22  65 NW13G18   30.33R WCI  22
MORRIS*        CLOUDY    31  21  66 N9G16     30.34R WCI  23
LEWIS AIRPORT* PTCLDY    29  18  63 N14       30.34R WCI  18
NORTHERLY IS     N/A     29  19  66 N15         N/A  WCI  18
$$

WIZ051-052-058>065-066-070>072-300800-
SOUTHEAST WISCONSIN

CITY           SKY/WX    TMP DP  RH WIND       PRES   REMARKS
MILWAUKEE      CLOUDY    25   7  46 N10       30.36R WCI  15
KENOSHA*       CLOUDY    26   9  48 N13       30.35R WCI  15
RACINE*        CLOUDY    25   8  48 N14G30    30.37R WCI  13
BURLINGTON     CLOUDY    23  10  55 N8        30.37R WCI  14
WAUKESHA       CLOUDY    21  10  63 N12       30.37R WCI   9
$$

INZ001>003-010>013-019-020-300800-
NORTHWEST INDIANA

CITY           SKY/WX    TMP DP  RH WIND       PRES   REMARKS
GARY*          FLURRIES  32  16  52 N23G31    30.33R WCI  19
MICHIGAN CITY* NOT AVBL
RENSSELAER*    NOT AVBL
VALPARAISO     CLOUDY    29  19  66 N14G25    30.29R WCI  18
$$

LMZ740>746-300800-
SOUTHERN LAKE MICHIGAN

STATION/POSITION TIME  SKY/WX   TEMP WIND        PRES    VSBY
                                AIR  DIR/SP/G
                 (UTC)          (F)  (DEG/KT/KT) (MB)    (MI)
HARRISON CRIB    0700            29  350/ 28/ 32   N/A
BURNHAM HARBOR   0700            29  360/ 18/ 22   N/A
CALUMET HARBOR   0600            29  330/ 17/ 27   N/A
BURNS HARBOR     NOT AVBL
MICHIGAN CITY    0700            29  350/ 32/ 37   N/A
$$

ABBREVIATIONS USED IN REMARKS
   TC - TEMPERATURE IN CELSIUS
  WCI - WIND CHILL INDEX
   HX - HEAT INDEX
  VSB - VISIBILITY
$$



USA.gov is the U.S. government's official web portal to all federal, state and local government web resources and services.